* Astronomy

Members Login
Username 
 
Password 
    Remember Me  
Post Info TOPIC: Asteroid 2007 ES


L

Posts: 131433
Date:
Asteroid 2007 ES
Permalink  
 


Orbital elements:
2007 ES Earth MOID = 0.3547 AU
Epoch 2011 Feb. 8.0 TT = JDT 2455600.5 MPC
M 95.70954 (2000.0) P Q
n 0.50120208 Peri. 19.25469 +0.96825003 +0.03353094
a 1.5696186 Node 334.55934 -0.22451419 +0.55242804
e 0.5946518 Incl. 35.21684 +0.10993294 +0.83288591
P 1.97 H 18.5 G 0.15 U 6

MPEC 2011 - E11


__________________
Page 1 of 1  sorted by
 
Quick Reply

Please log in to post quick replies.



Create your own FREE Forum
Report Abuse
Powered by ActiveBoard